Regional Weather Roundup
Issued by NWS

Home | Current Version | Previous Version | Graphics & Text | Print | Product List | Glossary On
Versions: 1 2 3 4 5 6 7 8 9 10 11 12 13 14 15 16 17 18 19 20 21 22 23 24 25 26 27 28 29 30 31 32 33 34 35 36 37 38 39 40 41 42 43 44 45 46 47 48 49 50
000
ASUS44 KMEG 081800
RWRTN
TENNESSEE HOURLY STATE WEATHER ROUNDUP
NATIONAL WEATHER SERVICE MEMPHIS TN
1200 PM CST THU DEC 08 2016

TNZ002-004-019-021-049-052-054-088>092-081900-
WEST TENNESSEE

CITY           SKY/WX    TMP DP  RH WIND       PRES   REMARKS
MEMPHIS INTL   PTSUNNY   37  18  46 NW10      30.51F WCI  30
NWS MEMPHIS      N/A     36 N/A N/A MISG        N/A
JACKSON        MOSUNNY   36  20  52 N9        30.49F WCI  29
DYERSBURG      MOSUNNY   34  16  47 NW8       30.51F WCI  27
UNION CITY     SUNNY     32  14  47 N14       30.49S WCI  22
PARIS          SUNNY     30  12  47 NW9       30.46F WCI  22
$$

TNZ008-025-027-028-033-062-065-066-081900-
NORTH MIDDLE TENNESSEE

CITY           SKY/WX    TMP DP  RH WIND       PRES   REMARKS
NASHVILLE      PTSUNNY   40  17  39 W10G17    30.41F WCI  33
CLARKSVILLE    MOSUNNY   35  16  45 NW12      30.44F WCI  27
SMYRNA         MOSUNNY   39  18  42 NW13      30.41F WCI  31
CROSSVILLE     CLOUDY    36  18  48 W14       30.29F WCI  27
$$

TNZ061-075-076-078-094-096-097-081900-
SOUTH MIDDLE TENNESSEE

CITY           SKY/WX    TMP DP  RH WIND       PRES   REMARKS
TULLAHOMA      SUNNY     37  19  48 N9        30.36F WCI  31
WINCHESTER     SUNNY     37  21  52 NW6       30.37F WCI  33
SHELBYVILLE    SUNNY     41  21  45 NW13      30.38F
$$

TNZ017-018-042-046-047-081900-
NORTHEAST TENNESSEE

CITY           SKY/WX    TMP DP  RH WIND       PRES   REMARKS
TRI CITIES     MOSUNNY   43  20  39 W16G22    30.19F
$$

TNZ012-013-036-069-073-074-081900-
CENTRAL EAST TENNESSEE

CITY           SKY/WX    TMP DP  RH WIND       PRES   REMARKS
KNOXVILLE      PTSUNNY   42  22  44 W8        30.28F
OAK RIDGE      CLOUDY    44  16  32 VRB6      30.30F
GATLINBURG     SUNNY     43  21  42 W8        30.28R
$$

TNZ083-085-099-081900-
SOUTHEAST TENNESSEE

CITY           SKY/WX    TMP DP  RH WIND       PRES   REMARKS
CHATTANOOGA    CLOUDY    43  19  38 NW13      30.35F
$$

SKY/WX REPORTED AS FAIR MEANS FEW OR NO CLOUDS BELOW
12 THOUSAND FEET.





USA.gov is the U.S. government's official web portal to all federal, state and local government web resources and services.